When you browse on this site, cookies collect data to enhance your experience and personalize the content and advertising you see.
Visit our Privacy Policy to learn more. By continuing to use the site, you agree to this use of cookies and data.

Hourly Weather a/p Chisinau International Airport

Today, 13 August, Thursday

Time Temperature Precipitation Wind Pressure Humidity
00:00 +18°C° 0 mm 3 mps 759 mmHg 64%
01:00 +17°C° 0 mm 3 mps 760 mmHg 67%
02:00 +16°C° 0 mm 2 mps 760 mmHg 70%
03:00 +15°C° 0 mm 2 mps 760 mmHg 72%
04:00 +14°C° 0 mm 2 mps 760 mmHg 74%
05:00 +14°C° 0 mm 2 mps 760 mmHg 76%
06:00 +16°C° 0 mm 2 mps 760 mmHg 68%
07:00 +18°C° 0 mm 2 mps 760 mmHg 60%
08:00 +20°C° 0 mm 3 mps 760 mmHg 52%
09:00 +22°C° 0 mm 3 mps 760 mmHg 46%
10:00 +24°C° 0 mm 3 mps 760 mmHg 40%
11:00 +26°C° 0 mm 3 mps 760 mmHg 34%
12:00 +27°C° 0 mm 3 mps 760 mmHg 32%
13:00 +28°C° 0 mm 3 mps 759 mmHg 29%
14:00 +29°C° 0 mm 3 mps 759 mmHg 26%
15:00 +29°C° 0 mm 3 mps 759 mmHg 26%
16:00 +29°C° 0 mm 3 mps 758 mmHg 26%
17:00 +29°C° 0 mm 3 mps 758 mmHg 26%
18:00 +27°C° 0 mm 3 mps 758 mmHg 32%
19:00 +24°C° 0 mm 2 mps 758 mmHg 39%
20:00 +21°C° 0 mm 2 mps 758 mmHg 46%
21:00 +19°C° 0 mm 2 mps 759 mmHg 50%
22:00 +18°C° 0 mm 2 mps 759 mmHg 54%
23:00 +17°C° 0 mm 2 mps 759 mmHg 58%

Tomorrow, 14 August, Friday

Time Temperature Precipitation Wind Pressure Humidity
00:00 +16°C° 0 mm 2 mps 759 mmHg 62%
01:00 +16°C° 0 mm 2 mps 759 mmHg 65%
02:00 +15°C° 0 mm 2 mps 759 mmHg 69%
03:00 +15°C° 0 mm 1 mps 759 mmHg 70%
04:00 +15°C° 0 mm 1 mps 759 mmHg 72%
05:00 +14°C° 0 mm 1 mps 758 mmHg 73%
06:00 +18°C° 0 mm 1 mps 759 mmHg 64%
07:00 +19°C° 0 mm 2 mps 759 mmHg 55%
08:00 +23°C° 0 mm 2 mps 759 mmHg 46%
09:00 +24°C° 0 mm 2 mps 759 mmHg 42%
10:00 +26°C° 0 mm 2 mps 758 mmHg 39%
11:00 +27°C° 0 mm 2 mps 758 mmHg 35%
12:00 +28°C° 0 mm 2 mps 758 mmHg 33%
13:00 +29°C° 0 mm 2 mps 758 mmHg 31%
14:00 +30°C° 0 mm 2 mps 757 mmHg 29%
15:00 +30°C° 0 mm 2 mps 757 mmHg 29%
16:00 +30°C° 0 mm 2 mps 757 mmHg 29%
17:00 +30°C° 0 mm 2 mps 757 mmHg 29%
18:00 +27°C° 0 mm 3 mps 757 mmHg 35%
19:00 +25°C° 0 mm 3 mps 758 mmHg 41%
20:00 +22°C° 0 mm 4 mps 758 mmHg 47%
21:00 +21°C° 0 mm 3 mps 758 mmHg 52%
22:00 +20°C° 0 mm 3 mps 759 mmHg 57%
23:00 +19°C° 0 mm 3 mps 759 mmHg 62%

Day after tomorrow, 15 August, Saturday

Time Temperature Precipitation Wind Pressure Humidity
00:00 +19°C° 0 mm 3 mps 759 mmHg 62%
01:00 +19°C° 0 mm 2 mps 759 mmHg 62%
02:00 +19°C° 0 mm 2 mps 759 mmHg 62%
03:00 +19°C° 0 mm 2 mps 759 mmHg 62%
04:00 +18°C° 0 mm 2 mps 759 mmHg 62%
05:00 +18°C° 0 mm 2 mps 759 mmHg 62%
06:00 +19°C° 0 mm 3 mps 759 mmHg 58%
07:00 +21°C° 0 mm 3 mps 759 mmHg 54%
08:00 +22°C° 0 mm 4 mps 759 mmHg 50%
09:00 +23°C° 0 mm 4 mps 759 mmHg 47%
10:00 +25°C° 0 mm 4 mps 759 mmHg 44%
11:00 +27°C° 0 mm 4 mps 759 mmHg 41%
12:00 +27°C° 0 mm 4 mps 758 mmHg 40%
13:00 +28°C° 0 mm 5 mps 758 mmHg 38%
14:00 +29°C° 0 mm 5 mps 758 mmHg 36%
15:00 +29°C° 0 mm 5 mps 758 mmHg 38%
16:00 +28°C° 0 mm 5 mps 757 mmHg 39%
17:00 +28°C° 0 mm 6 mps 757 mmHg 40%
18:00 +27°C° 0 mm 5 mps 757 mmHg 45%
19:00 +25°C° 0 mm 4 mps 757 mmHg 50%
20:00 +22°C° 0 mm 3 mps 757 mmHg 55%
21:00 +23°C° 0 mm 2 mps 758 mmHg 56%
22:00 +23°C° 0 mm 2 mps 758 mmHg 57%
23:00 +22°C° 0 mm 1 mps 758 mmHg 57%

16 August, Sunday

Time Temperature Precipitation Wind Pressure Humidity
00:00 +22°C° 0 mm 1 mps 758 mmHg 58%
01:00 +22°C° 0 mm 1 mps 758 mmHg 59%
02:00 +21°C° 0 mm 1 mps 758 mmHg 59%
03:00 +21°C° 0 mm 1 mps 758 mmHg 59%
04:00 +20°C° 0 mm 1 mps 758 mmHg 59%
05:00 +20°C° 0 mm 1 mps 757 mmHg 60%
06:00 +21°C° 0 mm 1 mps 758 mmHg 55%
07:00 +22°C° 0 mm 1 mps 758 mmHg 51%
08:00 +23°C° 0 mm 2 mps 758 mmHg 47%
09:00 +24°C° 0 mm 2 mps 758 mmHg 45%
10:00 +25°C° 0 mm 2 mps 758 mmHg 42%
11:00 +26°C° 0 mm 2 mps 758 mmHg 40%
12:00 +26°C° 0 mm 2 mps 758 mmHg 38%
13:00 +27°C° 0 mm 1 mps 758 mmHg 37%
14:00 +28°C° 0 mm 1 mps 758 mmHg 35%
15:00 +28°C° 0 mm 1 mps 758 mmHg 35%
16:00 +28°C° 0 mm 1 mps 758 mmHg 35%
17:00 +28°C° 0 mm 2 mps 757 mmHg 35%
18:00 +26°C° 0 mm 2 mps 757 mmHg 38%
19:00 +24°C° 0 mm 1 mps 758 mmHg 41%
20:00 +23°C° 0 mm 1 mps 758 mmHg 44%
21:00 +22°C° 0 mm 1 mps 758 mmHg 46%
22:00 +20°C° 0 mm 2 mps 758 mmHg 48%
23:00 +20°C° 0 mm 2 mps 758 mmHg 49%

17 August, Monday

Time Temperature Precipitation Wind Pressure Humidity
00:00 +19°C° 0 mm 2 mps 758 mmHg 49%
01:00 +19°C° 0 mm 2 mps 758 mmHg 50%
02:00 +19°C° 0 mm 2 mps 758 mmHg 50%
03:00 +18°C° 0 mm 2 mps 758 mmHg 52%
04:00 +17°C° 0 mm 2 mps 758 mmHg 54%
05:00 +17°C° 0 mm 2 mps 758 mmHg 56%
06:00 +19°C° 0 mm 2 mps 758 mmHg 50%
07:00 +22°C° 0 mm 3 mps 758 mmHg 44%
08:00 +25°C° 0 mm 3 mps 758 mmHg 38%
09:00 +27°C° 0 mm 4 mps 758 mmHg 33%
10:00 +29°C° 0 mm 5 mps 758 mmHg 28%
11:00 +32°C° 0 mm 5 mps 758 mmHg 23%
12:00 +33°C° 0 mm 5 mps 757 mmHg 22%
13:00 +33°C° 0 mm 5 mps 757 mmHg 22%
14:00 +34°C° 0 mm 5 mps 756 mmHg 21%
15:00 +34°C° 0 mm 5 mps 756 mmHg 21%
16:00 +34°C° 0 mm 5 mps 756 mmHg 21%
17:00 +34°C° 0 mm 5 mps 755 mmHg 22%
18:00 +30°C° 0 mm 5 mps 755 mmHg 28%
19:00 +27°C° 0 mm 5 mps 755 mmHg 34%
20:00 +25°C° 0 mm 5 mps 755 mmHg 40%
21:00 +23°C° 0 mm 5 mps 755 mmHg 46%
22:00 +22°C° 0 mm 4 mps 755 mmHg 52%
23:00 +20°C° 0 mm 4 mps 755 mmHg 58%

18 August, Tuesday

Time Temperature Precipitation Wind Pressure Humidity
00:00 +20°C° 0 mm 4 mps 755 mmHg 63%
01:00 +19°C° 0 mm 3 mps 755 mmHg 68%
02:00 +19°C° 0 mm 3 mps 755 mmHg 73%
03:00 +18°C° 0 mm 3 mps 754 mmHg 77%
04:00 +18°C° 0 mm 3 mps 754 mmHg 81%
05:00 +17°C° 0 mm 3 mps 754 mmHg 84%
06:00 +20°C° 0 mm 3 mps 754 mmHg 75%
07:00 +22°C° 0 mm 4 mps 754 mmHg 66%
08:00 +25°C° 0 mm 4 mps 753 mmHg 57%
09:00 +27°C° 0 mm 5 mps 753 mmHg 48%
10:00 +30°C° 0 mm 5 mps 753 mmHg 39%
11:00 +33°C° 0 mm 5 mps 753 mmHg 31%
12:00 +34°C° 0 mm 5 mps 752 mmHg 29%
13:00 +35°C° 0 mm 4 mps 752 mmHg 28%
14:00 +36°C° 0 mm 4 mps 751 mmHg 26%
15:00 +36°C° 0 mm 4 mps 751 mmHg 27%
16:00 +35°C° 0 mm 4 mps 751 mmHg 27%
17:00 +35°C° 0 mm 3 mps 751 mmHg 27%
18:00 +33°C° 0 mm 4 mps 751 mmHg 32%
19:00 +30°C° 0 mm 4 mps 751 mmHg 38%
20:00 +27°C° 0 mm 5 mps 751 mmHg 43%
21:00 +26°C° 0 mm 4 mps 751 mmHg 47%
22:00 +23°C° 0 mm 4 mps 751 mmHg 51%
23:00 +22°C° 0 mm 3 mps 751 mmHg 55%
Show more